{"data":{"norad_id":62155,"intl_designator":"2024-224S","name":"STARLINK-32635","alt_names":[],"object_type":"PAYLOAD","status":"ACTIVE","operator":null,"country":"US","launch_date":"2024-11-30","launch_site_code":"AFETR","launch_vehicle":null,"mission":null,"orbit_class":"UNKNOWN","rcs_meters":null,"size_class":null,"mass_kg":null,"dimensions":null,"purposes":["comms"],"wikipedia_slug":null,"has_3d_model":false,"image_url":null,"decayed_at":null,"tle_current":{"epoch":"2026-09-21T01:44:42.371232Z","epoch_age_seconds":132354,"freshness":"FRESH","line1":"1 62155U 24224S   26264.07271263  .00009740  00000+0  36270-3 0  9991","line2":"2 62155  43.0011 142.2630 0002541 258.1868 101.8699 15.27605817102119","mean_motion":15.27605817,"eccentricity":0.0002541,"inclination_deg":43.0011,"raan_deg":142.263,"arg_perigee_deg":258.1868,"mean_anomaly_deg":101.8699,"bstar":0.0003627,"rev_number":10211,"period_min":94.265155577108,"perigee_km":481.22838399879,"apogee_km":484.71519948676,"semimajor_km":6861.1087917428,"source":"CELESTRAK","updated_at":"2026-09-22T09:00:49.532650Z"}}}